Location: Boulin
(43.2500°N, 0.1333°E)
Time: 03:17:29
(UTC+00:00)

Cosmos 2084 Rocket - Pass Details

Date: 11 December 2025
Orbit: 545 x 568 km, 62.8° (Epoch: 12 January)

Event Time Altitude Azimuth Distance (km) Brightness Sun altitude
Rises 17:21:03 0° 323° (NW) 2,771 7.1 -10.1°
Reaches altitude 10° 17:23:17 10° 325° (NW) 1,872 6.2 -10.5°
Maximum altitude 17:27:30 81° 51° (NE) 581 3.3 -11.2°
Drops below altitude 10° 17:31:43 10° 140° (SE) 1,863 5.8 -11.9°
Sets 17:33:57 0° 142° (SE) 2,756 6.7 -12.3°
